Location: Pasarilla del Rebollar
(40.6790°N, 5.0062°W)
Time: 10:37:55
(UTC+00:00)

CZ-3 R/B - Pass Details

Date: 22 April 2026
Orbit: 564 x 9991 km, 28.2° (Epoch: 15 May)

Event Time Altitude Azimuth Distance (km) Brightness Sun altitude
Rises 03:21:29 0° 260° (W) 13,367 6.8 -22.3°
Enters shadow 03:30:09 - 259° (WSW) 11,866 6.5 -21.1°
Exits shadow 03:38:49 12° 257° (WSW) 10,111 6.1 -19.8°
Maximum altitude 04:07:03 51° 193° (SSW) 3,076 3.7 -15.4°
Drops below altitude 10° 04:15:48 10° 119° (ESE) 3,431 4.8 -13.9°
Sets 04:17:48 0° 113° (ESE) 3,995 5.3 -13.6°
